Location: Marcé
(47.5801°N, 0.3280°W)
Time: 06:18:33
(UTC+01:00)

Altair - Pass Details

Date: 17 December 2021
Orbit: 1501 x 1683 km, 47.2° (Epoch: 21 January)

Event Time Altitude Azimuth Distance (km) Brightness Sun altitude
Rises 14:57:35 0° 258° (WSW) 4,848 10.7 14.1°
Reaches altitude 10° 15:00:44 10° 258° (WSW) 3,839 10.3 13.8°
Maximum altitude 15:10:31 86° 171° (S) 1,578 7.9 13.0°
Drops below altitude 10° 15:19:55 10° 84° (E) 3,701 9.2 12.2°
Sets 15:22:55 0° 85° (E) 4,667 9.7 11.9°
